Regional Weather Roundup
Issued by NWS

Home | Current Version | Previous Version | Graphics & Text | Print | Product List | Glossary On
Versions: 1 2 3 4 5 6 7 8 9 10 11 12 13 14 15 16 17 18 19 20 21 22 23 24
000
ASUS45 KCYS 220210
RWRWY

WYOMING REGIONAL WEATHER ROUNDUP
NATIONAL WEATHER SERVICE CHEYENNE WY
800 PM MDT TUE MAR 21 2017

NOTE:  "FAIR" INDICATES FEW OR NO CLOUDS BELOW 12,000 FEET
WITH NO SIGNIFICANT WEATHER AND/OR OBSTRUCTIONS TO VISIBILITY.

WYZ001-220300-
YELLOWSTONE NATIONAL PARK

CITY           SKY/WX    TMP DP  RH WIND       PRES   REMARKS
LK YELLOWSTONE   N/A     34  31  88 CALM      30.01S
W YELLOWSTONE  NOT AVBL

$$
WYZ002>013-054>058-071-098>099-220300-
NORTHERN WYOMING

CITY           SKY/WX    TMP DP  RH WIND       PRES   REMARKS
JACKSON        PTCLDY    46  32  57 CALM      29.95S
CODY           FAIR      43  37  79 E5        29.96F
GREYBULL       FAIR      47  41  80 NW7       29.95R
WORLAND        MOCLDY    46  41  82 NE3       29.94S
SHERIDAN       FAIR      44  36  73 SE16      29.96F
BUFFALO        FAIR      40  34  79 SE9G22    29.99F WCI  34
GILLETTE       CLOUDY    36  33  89 S25G33    30.04F WCI  24
HULETT         FAIR      32  32 100 E7        30.10F WCI  26
NEWCASTLE      FAIR      39  30  70 SE16G25   30.11F WCI  30

$$
WYZ014>020-022>026-101>103-220300-
CENTRAL WYOMING

CITY           SKY/WX    TMP DP  RH WIND       PRES   REMARKS
BIG PINEY      FAIR      38  34  85 NW6       30.02S WCI  33
PINEDALE       FAIR      43  32  65 CALM      30.03S
DUBOIS         FAIR      43  34  70 S3        29.99S
LANDER         FAIR      49  38  65 N3        29.95R
RIVERTON       FAIR      46  37  71 N9        29.96S
CASPER         CLOUDY    48  44  86 N10       30.01R
DOUGLAS        MOCLDY    48  39  71 SE18      30.05S

$$
WYZ021-027>030-104>119-220300-
SOUTHERN WYOMING

CITY           SKY/WX    TMP DP  RH WIND       PRES   REMARKS
EVANSTON       FAIR      49  27  42 S10       29.99S
KEMMERER         N/A     50  28  43 SE5       30.02S
FORT BRIDGER   FAIR      53  30  41 S10       30.04R
ROCK SPRINGS   FAIR      55  30  38 SE3       30.01F
DIXON            N/A     59  25  27 W12       30.06S
RAWLINS        FAIR      54  24  31 SW8       30.04R
SARATOGA       CLOUDY    55  23  28 S12       30.08R
LARAMIE        CLOUDY    46  34  62 SE18G30   30.11R
CHEYENNE       MOCLDY    47  35  63 SE21G26   30.11F
TORRINGTON     FAIR      50  37  61 SE18      30.09S
PINE BLUFFS    CLOUDY    48  32  53 SE24G31   30.12F

$$




USA.gov is the U.S. government's official web portal to all federal, state and local government web resources and services.